This is the latest recevied weather packets stored in our database for station/object N6SPP. If no packets are shown the sender has not sent any weather packets the latest 10 day(s).
| Time | Temp. | Humidity | Pressure | Rain* | Wind** | Luminosity | Snow |
|---|---|---|---|---|---|---|---|
| 1777530552 | 17.78° C | 42% | 1017.3 hPa | 0 mm | - | 0 W/m² | - |
| 1777530248 | 17.78° C | 43% | 1017.3 hPa | 0 mm | - | 0 W/m² | - |
| 1777529945 | 17.78° C | 43% | 1017.6 hPa | 0 mm | - | 0 W/m² | - |
| 1777529642 | 17.78° C | 44% | 1017.2 hPa | 0 mm | - | 0 W/m² | - |
| 1777529338 | 18.33° C | 42% | 1017.4 hPa | 0 mm | - | 0 W/m² | - |
| 1777529034 | 17.78° C | 41% | 1017.4 hPa | 0 mm | - | 0 W/m² | - |
| 1777528730 | 17.78° C | 45% | 1017.4 hPa | 0 mm | - | 0 W/m² | - |
| 1777528427 | 17.78° C | 46% | 1017.5 hPa | 0 mm | - | 0 W/m² | - |
| 1777528126 | 17.22° C | 46% | 1017.5 hPa | 0 mm | - | 0 W/m² | - |
| 1777527823 | 17.22° C | 49% | 1017.7 hPa | 0 mm | - | 0 W/m² | - |
| 1777527517 | 17.22° C | 52% | 1017.7 hPa | 0 mm | - | 0 W/m² | - |
| 1777527213 | 17.22° C | 51% | 1017.6 hPa | 0 mm | - | 0 W/m² | - |
| 1777526904 | 17.22° C | 53% | 1017.6 hPa | 0 mm | - | 0 W/m² | - |
| 1777526598 | 17.22° C | 52% | 1017.7 hPa | 0 mm | - | 0 W/m² | - |
| 1777526293 | 17.22° C | 50% | 1017.6 hPa | 0 mm | - | 0 W/m² | - |
| 1777525990 | 17.22° C | 52% | 1017.4 hPa | 0 mm | - | 0 W/m² | - |
| 1777525687 | 17.22° C | 52% | 1017.7 hPa | 0 mm | - | 0 W/m² | - |
| 1777525384 | 17.22° C | 48% | 1017.7 hPa | 0 mm | - | 0 W/m² | - |
| 1777525080 | 17.78° C | 49% | 1017.8 hPa | 0 mm | - | 0 W/m² | - |
| 1777524777 | 17.78° C | 50% | 1017.6 hPa | 0 mm | - | 0 W/m² | - |
| 1777524475 | 17.78° C | 50% | 1017.7 hPa | 0 mm | - | 0 W/m² | - |
| 1777524172 | 17.22° C | 52% | 1017.8 hPa | 0 mm | - | 0 W/m² | - |
| 1777523868 | 17.22° C | 54% | 1018 hPa | 0 mm | - | 0 W/m² | - |
| 1777523564 | 16.67° C | 58% | 1017.9 hPa | 0 mm | - | 0 W/m² | - |
| 1777523261 | 16.67° C | 59% | 1017.7 hPa | 0 mm | - | 0 W/m² | - |
* Rain latest hour (hover to see other rain measurements)
** Current wind speed in m/s (hover to see current wind gust speed)